map of IEV home
IEV - Airport
Location
City:  Kiev, Kiev, Ukraine
Name:Zhulyany
ICAO:UKKK
IATA:IEV

Details
Type:Airport (Aerodrome, Airfield)
Use:Public/Civil, International (customs port of entry)
Latitude:5024'06"N (50.401694)
Longitude:3026'59"E (30.449697)
Elevation:586 ft (179 m)
Variation:7.62E (WMM2015 magnetic declination)
0.12 annual change
Runways:1
Longest:5905 × 161 ft (1800 × 49 m), paved

Time
Time Zone:UTC+2 (DST+3)
Local Time:

Weather
METAR:UKKK 192100Z 26004MPS 9999 BKN039 M02/M06 Q1023 R26/190058 NOSIG
TAF:UKKK 182307Z 1900/1924 31005G10MPS 6000 BKN010 TXM02/1912Z TNM05/1904Z
TEMPO 1900/1907 28007G12MPS 1000 SHSN BR BKN002 SCT012CB
BECMG 1918/1920 28003MPS
TEMPO 1920/1924 2000 BR SCT007

Related Locations
Nearby:
Farthest:CHT: 11099 mi / 17862 km
Waitangi [Tuuta], CIT, NZ

Find:

   beyond  
but within

Other Information
Maps:
NOTAMs:
Links:
Sources:

  
flag of Ukraine
flag of Kiev
flag of Kiev
  

Sectional Chart

Flight Planning
at skyvector.com

Satellite Image

Google Maps Satellite view

 

Copyright © 2004-2018 Karl L. Swartz. All rights reserved.
The Great Circle Mapper name and logo are trademarks of the Great Circle Mapper.
All other trademarks mentioned herein belong to their respective owners.
Please see credits for attibutions and further copyright information.

  Follow gcmap on Facebook Follow gcmap on Twitter Follow gcmap on Google+ GCmap on LinkedIn

hCard Microformat

Geo Microformat